This is the latest recevied weather packets stored in our database for station/object WB9FIU. If no packets are shown the sender has not sent any weather packets the latest 1 day(s).
| Time | Temp. | Humidity | Pressure | Rain* | Wind** | Luminosity | Snow |
|---|---|---|---|---|---|---|---|
| 1778041502 | 9.44° C | 94% | 1007.1 hPa | 0 mm | 2.68 m/s, 348° | - | - |
| 1778041442 | 9.44° C | 95% | 1007.2 hPa | 0 mm | 2.24 m/s, 12° | - | - |
| 1778041382 | 10° C | 95% | 1007.3 hPa | 0 mm | 1.34 m/s, 1° | - | - |
| 1778041323 | 10° C | 95% | 1007.3 hPa | 0 mm | 1.34 m/s, 1° | - | - |
| 1778041262 | 9.44° C | 95% | 1007.3 hPa | 0 mm | 2.68 m/s, 11° | - | - |
| 1778041202 | 10° C | 95% | 1007.3 hPa | 0 mm | 0.89 m/s, 8° | - | - |
| 1778041142 | 10° C | 95% | 1007.2 hPa | 0 mm | 0.89 m/s, 352° | - | - |
| 1778041082 | 10° C | 95% | 1007.2 hPa | 0 mm | 0.89 m/s, 341° | - | - |
| 1778041022 | 10° C | 95% | 1007.2 hPa | 0 mm | 0.89 m/s, 341° | - | - |
| 1778040961 | 9.44° C | 95% | 1007.2 hPa | 0 mm | 2.24 m/s, 5° | - | - |
| 1778040901 | 10° C | 95% | 1007.2 hPa | 0 mm | 1.34 m/s, 354° | - | - |
| 1778040841 | 10° C | 95% | 1007.3 hPa | 0 mm | 0.45 m/s, 10° | - | - |
| 1778040783 | 10° C | 95% | 1007.3 hPa | 0 mm | 0.89 m/s, 14° | - | - |
| 1778040721 | 10° C | 95% | 1007.3 hPa | 0 mm | 1.34 m/s, 6° | - | - |
| 1778040661 | 10° C | 95% | 1007.3 hPa | 0 mm | 0.45 m/s, 286° | - | - |
| 1778040601 | 10° C | 95% | 1007.3 hPa | 0 mm | 0.45 m/s, 12° | - | - |
| 1778040541 | 10° C | 95% | 1007.4 hPa | 0 mm | 0.45 m/s, 9° | - | - |
| 1778040481 | 10° C | 95% | 1007.4 hPa | 0 mm | 0.45 m/s, 3° | - | - |
| 1778040421 | 10° C | 95% | 1007.4 hPa | 0 mm | 0.89 m/s, 343° | - | - |
| 1778040361 | 10° C | 95% | 1007.4 hPa | 0 mm | 0.45 m/s, 304° | - | - |
| 1778040301 | 10° C | 95% | 1007.5 hPa | 0 mm | 0 m/s | - | - |
| 1778040241 | 10° C | 95% | 1007.4 hPa | 0 mm | 0.45 m/s, 246° | - | - |
| 1778040180 | 10° C | 95% | 1007.4 hPa | 0 mm | 0.45 m/s, 337° | - | - |
| 1778040120 | 10° C | 95% | 1007.4 hPa | 0 mm | 0.89 m/s, 353° | - | - |
| 1778040060 | 10° C | 95% | 1007.5 hPa | 0 mm | 0.89 m/s, 355° | - | - |
* Rain latest hour (hover to see other rain measurements)
** Current wind speed in m/s (hover to see current wind gust speed)